Location: Gwatt
(46.7204°N, 7.6223°E)
Time: 13:57:39
(UTC+00:00)

S-56A Canister/Altair - Pass Details

Date: 25 January 2021
Orbit: 632 x 2501 km, 38.9° (Epoch: 28 February)

Event Time Altitude Azimuth Distance (km) Brightness Sun altitude
Rises 02:30:50 0° 240° (WSW) 3,008 - -45.7°
Reaches altitude 10° 02:33:27 10° 228° (SW) 2,023 - -45.3°
Maximum altitude 02:37:15 28° 169° (SSE) 1,195 - -44.7°
Drops below altitude 10° 02:41:13 10° 110° (ESE) 2,117 - -44.1°
Exits shadow 02:42:27 - 103° (ESE) 2,568 10.7 -43.9°
Sets 02:44:01 0° 98° (E) 3,176 11.3 -43.7°
